Weather History for Camp Pendleton, CA

Change the Weather History Date:

Tuesday, November 27, 2012

  Actual Average Record
Temperature  
Mean Temperature 54 °F -  
Max Temperature 69 °F 66 °F 84 °F (2011)
Min Temperature 39 °F 39 °F 26 °F (2010)
Degree Days  
Heating Degree Days 11    
Growing Degree Days 4 (Base 50)    
Moisture  
Dew Point 45 °F    
Average Humidity 78    
Maximum Humidity 87    
Minimum Humidity 53    
Precipitation  
Precipitation 0.01 in - - ()
Sea Level Pressure  
Sea Level Pressure 30.11 in    
Wind  
Wind Speed 3 mph (WSW)    
Max Wind Speed 9 mph    
Max Gust Speed -    
Visibility 8 miles    
Events      
Averages and records for this station are not official NWS values.
T = Trace of Precipitation, MM = Missing Value Source: NWS Daily Summary

Daily Weather History Graph

Daily Weather History Graph

Search for Another Location

Airport:

Trip Planner

Search our weather history database for the weather conditions in past years. The results will help you decide how hot, cold, wet, or windy it might be!

Date:

Astronomy

Nov. 27, 2012 Rise Set
Actual Time 6:32 AM PST 4:42 PM PST
Civil Twilight 6:05 AM PST 5:09 PM PST
Nautical Twilight 5:34 AM PST 5:39 PM PST
Astronomical Twilight 5:04 AM PST 6:09 PM PST
Moon 4:16 PM PST (11/27) 5:42 AM PST (11/27)
Length of Visible Light 11h 04m
Length of Day
10h 10m
Waxing Gibbous, 99% of the Moon is Illuminated
Nov 27
Waxing Gibbous
Nov 28
Full
Dec 6
Last Quarter
Dec 13
New
Dec 19
First Quarter

Hourly Weather History & Observations

Time (PST) Temp. Windchill Dew Point Humidity Pressure Visibility Wind Dir Wind Speed Gust Speed Precip Events Conditions
12:54 AM 46.0 °F 43.9 °F 41.0 °F 83% 30.10 in 9.0 mi NE 4.6 mph - N/A   Clear
1:54 AM 43.0 °F 41.3 °F 39.0 °F 86% 30.10 in 9.0 mi NNE 3.5 mph - 0.01 in   Clear
2:07 AM 42.8 °F 41.1 °F 37.4 °F 81% 30.10 in 9.0 mi NE 3.5 mph - N/A   Scattered Clouds
2:54 AM 45.0 °F - 39.9 °F 82% 30.10 in 10.0 mi Calm Calm - N/A   Clear
3:12 AM 41.0 °F 39.0 °F 35.6 °F 81% 30.09 in 2.5 mi West 3.5 mph - N/A   Haze
3:15 AM 39.2 °F 35.9 °F 35.6 °F 87% 30.09 in 1.2 mi West 4.6 mph - N/A   Scattered Clouds
3:17 AM 41.0 °F 39.0 °F 35.6 °F 81% 30.09 in 0.8 mi WSW 3.5 mph - N/A   Haze
3:26 AM 42.8 °F - 37.4 °F 81% 30.09 in 1.0 mi Calm Calm - N/A   Haze
3:28 AM 41.0 °F - 37.4 °F 87% 30.09 in 2.0 mi Calm Calm - N/A   Scattered Clouds
3:35 AM 39.2 °F - 35.6 °F 87% 30.09 in 5.0 mi Calm Calm - N/A   Partly Cloudy
3:54 AM 42.1 °F - 37.9 °F 85% 30.10 in 5.0 mi Calm Calm - N/A   Partly Cloudy
4:54 AM 43.0 °F 41.3 °F 37.9 °F 82% 30.09 in 6.0 mi WSW 3.5 mph - N/A   Haze
5:54 AM 41.0 °F - 36.0 °F 82% 30.13 in 10.0 mi Calm Calm - N/A   Scattered Clouds
6:54 AM 41.0 °F 39.0 °F 37.0 °F 86% 30.16 in 10.0 mi ENE 3.5 mph - N/A   Mostly Cloudy
7:54 AM 48.9 °F - 44.1 °F 83% 30.16 in 7.0 mi NE 6.9 mph - N/A   Mostly Cloudy
8:54 AM 57.0 °F - 48.9 °F 74% 30.17 in 8.0 mi Calm Calm - N/A   Mostly Cloudy
9:54 AM 63.0 °F - 52.0 °F 67% 30.17 in 8.0 mi Calm Calm - N/A   Mostly Cloudy
10:54 AM 64.9 °F - 53.1 °F 65% 30.14 in 7.0 mi Calm Calm - N/A   Mostly Cloudy
11:55 AM 68.0 °F - 51.1 °F 55% 30.09 in 8.0 mi Calm Calm - N/A   Mostly Cloudy
12:54 PM 69.1 °F - 51.1 °F 53% 30.05 in 9.0 mi SSW 5.8 mph - N/A   Mostly Cloudy
1:54 PM 66.0 °F - 53.1 °F 63% 30.04 in 8.0 mi SSW 5.8 mph - N/A   Mostly Cloudy
2:55 PM 64.9 °F - 53.1 °F 65% 30.04 in 10.0 mi SW 9.2 mph - N/A   Mostly Cloudy
3:54 PM 63.0 °F - 53.1 °F 70% 30.05 in 10.0 mi SW 3.5 mph - N/A   Scattered Clouds
4:54 PM 61.0 °F - 53.1 °F 75% 30.07 in 10.0 mi SSW 3.5 mph - N/A   Scattered Clouds
5:54 PM 55.9 °F - 50.0 °F 80% 30.09 in 10.0 mi Calm Calm - N/A   Scattered Clouds
6:54 PM 55.0 °F - 48.9 °F 80% 30.11 in 10.0 mi North - - N/A   Scattered Clouds
7:54 PM 53.1 °F - 48.9 °F 86% 30.12 in 9.0 mi Calm Calm - N/A   Mostly Cloudy
8:54 PM 53.1 °F - 48.0 °F 83% 30.13 in 9.0 mi Calm Calm - N/A   Mostly Cloudy
9:54 PM 57.9 °F - 51.1 °F 78% 30.15 in 10.0 mi Calm Calm - N/A   Overcast
10:54 PM 57.9 °F - 51.1 °F 78% 30.16 in 10.0 mi Calm Calm - N/A   Overcast
11:54 PM 57.0 °F - 51.1 °F 81% 30.16 in 10.0 mi Calm Calm - N/A   Overcast